Location: Kerguer�zec
(48.4509°N, 4.7600°W)
Time: 17:13:47
(UTC+00:00)

CZ-4C R/B - Visible Passes

Search period start: 15 August 2020 00:00
Search period end: 25 August 2020 00:00
Orbit: 632 x 1370 km, 63.4° (Epoch: 15 August)

Date Brightness Start Highest point End Pass type
(mag) Time Alt. Az. Time Alt. Az. Time Alt. Az.
21 Aug 4.6 04:26:15 10° SE 04:28:46 14° ESE 04:31:26 10° ENE visible
23 Aug 4.8 03:46:24 10° ESE 03:47:29 11° ESE 03:48:35 10° E visible
24 Aug 4.0 04:16:00 10° SSE 04:20:04 26° ESE 04:24:43 10° ENE visible
